User: anonymous   Login
Location: Unspecified
(40.7945°N, 111.1337°W)
Time: 02:35:17
(UTC-06:00)
Language:

deb Explorer IX - Orbit

View from above orbital plane
View from above orbital plane
View from above satellite
View from above satellite

Ground track
Ground track

The orbit data is extracted from the following two-line orbital elements,

1    85U 61004C   19175.93882284  .00002244  00000-0  47891-3 0  9995
2    85  38.7753  48.3643 0401773 272.4204  83.0611 14.19823947880091
Epoch (UTC): 24 June 2019 22:31:54
Eccentricity: 0.0401773
inclination: 38.7753°
perigee height: 536 km
apogee height: 1115 km
right ascension of ascending node: 48.3643°
argument of perigee: 272.4204°
revolutions per day: 14.19823947
mean anomaly at epoch: 83.0611°
orbit number at epoch: 88009

The dashed part of the orbit path shows where the satellite is in the earth's shadow,  

DLR